Weather History for Winona, MN

Change the Weather History Date:

Monday, December 5, 2011

  Actual Average Record
Temperature  
Mean Temperature 21 °F -  
Max Temperature 23 °F 33 °F 64 °F (1998)
Min Temperature 19 °F 20 °F -4 °F (1991)
Degree Days  
Heating Degree Days 44    
Moisture  
Dew Point 18 °F    
Average Humidity 85    
Maximum Humidity 93    
Minimum Humidity 80    
Precipitation  
Precipitation 0.00 in - - ()
Sea Level Pressure  
Sea Level Pressure 30.40 in    
Wind  
Wind Speed 7 mph (NW)    
Max Wind Speed 13 mph    
Max Gust Speed 16 mph    
Visibility 10 miles    
Events Snow    
Averages and records for this station are not official NWS values.
T = Trace of Precipitation, MM = Missing Value Source: NWS Daily Summary

Daily Weather History Graph

Daily Weather History Graph

Search for Another Location

Airport:

Trip Planner

Search our weather history database for the weather conditions in past years. The results will help you decide how hot, cold, wet, or windy it might be!

Date:

Astronomy

Dec. 05, 2011 Rise Set
Actual Time 7:25 AM CST 4:28 PM CST
Civil Twilight 6:53 AM CST 5:01 PM CST
Nautical Twilight 6:16 AM CST 5:37 PM CST
Astronomical Twilight 5:41 AM CST 6:12 PM CST
Moon 1:32 PM CST (12/5) 2:40 AM CST (12/5)
Length of Visible Light 10h 08m
Length of Day
9h 03m
Waxing Gibbous, 80% of the Moon is Illuminated
Dec 5
Waxing Gibbous
Dec 10
Full
Dec 17
Last Quarter
Dec 24
New
Jan 1
First Quarter

Hourly Weather History & Observations

Time (CST) Temp. Windchill Dew Point Humidity Pressure Visibility Wind Dir Wind Speed Gust Speed Precip Events Conditions
12:15 AM 23.0 °F 15.8 °F 19.4 °F 86% 30.33 in 10.0 mi NNW 5.8 mph - N/A   Overcast
12:36 AM 23.0 °F 17.0 °F 21.2 °F 93% 30.33 in 10.0 mi NW 4.6 mph - N/A   Overcast
12:55 AM 23.0 °F 14.7 °F 19.4 °F 86% 30.32 in 10.0 mi NW 6.9 mph - N/A   Overcast
1:15 AM 23.0 °F 15.8 °F 19.4 °F 86% 30.32 in 10.0 mi NNW 5.8 mph - N/A   Overcast
1:36 AM 23.0 °F 15.8 °F 21.2 °F 93% 30.33 in 10.0 mi WNW 5.8 mph - N/A   Overcast
1:55 AM 23.0 °F 14.7 °F 21.2 °F 93% 30.33 in 10.0 mi NW 6.9 mph - N/A   Overcast
2:16 AM 23.0 °F 14.7 °F 21.2 °F 93% 30.33 in 10.0 mi NW 6.9 mph - N/A   Overcast
2:35 AM 23.0 °F 14.7 °F 19.4 °F 86% 30.34 in 10.0 mi NW 6.9 mph - N/A   Overcast
2:55 AM 23.0 °F 15.8 °F 19.4 °F 86% 30.34 in 10.0 mi WNW 5.8 mph - N/A   Overcast
3:16 AM 23.0 °F 13.9 °F 19.4 °F 86% 30.35 in 10.0 mi WNW 8.1 mph - N/A   Overcast
3:36 AM 23.0 °F 14.7 °F 19.4 °F 86% 30.35 in 10.0 mi NW 6.9 mph - N/A   Overcast
4:15 AM 23.0 °F 15.8 °F 19.4 °F 86% 30.36 in 10.0 mi WNW 5.8 mph - N/A   Overcast
4:35 AM 23.0 °F 17.0 °F 19.4 °F 86% 30.36 in 10.0 mi NNW 4.6 mph - N/A   Overcast
5:15 AM 21.2 °F 14.9 °F 17.6 °F 86% 30.37 in 10.0 mi NW 4.6 mph - N/A   Overcast
5:36 AM 21.2 °F 13.6 °F 17.6 °F 86% 30.37 in 10.0 mi NW 5.8 mph - N/A   Overcast
5:55 AM 21.2 °F 12.6 °F 17.6 °F 86% 30.37 in 10.0 mi NW 6.9 mph - N/A   Overcast
6:15 AM 21.2 °F 12.6 °F 17.6 °F 86% 30.37 in 10.0 mi NNW 6.9 mph - N/A   Overcast
6:35 AM 21.2 °F 16.4 °F 17.6 °F 86% 30.37 in 10.0 mi NW 3.5 mph - N/A   Overcast
6:55 AM 21.2 °F 11.7 °F 17.6 °F 86% 30.37 in 10.0 mi NNW 8.1 mph - N/A   Overcast
7:15 AM 21.2 °F 10.9 °F 17.6 °F 86% 30.36 in 10.0 mi NNW 9.2 mph - N/A   Overcast
7:35 AM 21.2 °F 11.7 °F 17.6 °F 86% 30.37 in 10.0 mi NW 8.1 mph - N/A   Overcast
8:16 AM 21.2 °F 14.9 °F 17.6 °F 86% 30.42 in 10.0 mi WNW 4.6 mph - N/A   Overcast
8:35 AM 21.2 °F 12.6 °F 17.6 °F 86% 30.42 in 10.0 mi NW 6.9 mph - N/A   Overcast
8:55 AM 21.2 °F 12.6 °F 17.6 °F 86% 30.41 in 10.0 mi NNW 6.9 mph - N/A Snow Light Snow
9:16 AM 21.2 °F 11.7 °F 17.6 °F 86% 30.40 in 10.0 mi NW 8.1 mph - N/A Snow Light Snow
9:35 AM 21.2 °F 10.9 °F 17.6 °F 86% 30.41 in 10.0 mi NNW 9.2 mph - N/A   Overcast
9:55 AM 21.2 °F 11.7 °F 17.6 °F 86% 30.43 in 10.0 mi NNW 8.1 mph - N/A   Overcast
10:16 AM 23.0 °F 13.9 °F 17.6 °F 80% 30.43 in 10.0 mi NNW 8.1 mph - N/A Snow Light Snow
10:35 AM 23.0 °F 13.9 °F 17.6 °F 80% 30.44 in 10.0 mi NNW 8.1 mph - N/A   Overcast
10:55 AM 23.0 °F 13.1 °F 19.4 °F 86% 30.43 in 10.0 mi NNW 9.2 mph - N/A   Overcast
11:16 AM 23.0 °F 13.9 °F 19.4 °F 86% 30.44 in 10.0 mi NW 8.1 mph - N/A Snow Light Snow
11:35 AM 23.0 °F 13.1 °F 19.4 °F 86% 30.42 in 10.0 mi NNW 9.2 mph - N/A Snow Light Snow
11:55 AM 23.0 °F 13.1 °F 19.4 °F 86% 30.41 in 7.0 mi NNW 9.2 mph - N/A Snow Light Snow
12:16 PM 23.0 °F 13.1 °F 19.4 °F 86% 30.41 in 7.0 mi NW 9.2 mph - N/A Snow Light Snow
12:35 PM 23.0 °F 13.1 °F 19.4 °F 86% 30.40 in 5.0 mi NW 9.2 mph - N/A Snow Light Snow
12:55 PM 23.0 °F 12.4 °F 19.4 °F 86% 30.41 in 7.0 mi NW 10.4 mph - N/A Snow Light Snow
1:16 PM 23.0 °F 13.1 °F 19.4 °F 86% 30.41 in 10.0 mi NNW 9.2 mph - N/A   Overcast
1:35 PM 23.0 °F 13.9 °F 19.4 °F 86% 30.41 in 10.0 mi NNW 8.1 mph - N/A   Overcast
1:55 PM 23.0 °F 11.1 °F 19.4 °F 86% 30.40 in 10.0 mi NNW 12.7 mph - N/A   Overcast
2:16 PM 23.0 °F 12.4 °F 19.4 °F 86% 30.40 in 10.0 mi NNW 10.4 mph - N/A   Overcast
2:36 PM 23.0 °F 12.4 °F 19.4 °F 86% 30.40 in 10.0 mi NW 10.4 mph - N/A   Overcast
2:56 PM 23.0 °F 12.4 °F 19.4 °F 86% 30.40 in 10.0 mi NW 10.4 mph - N/A   Overcast
3:15 PM 23.0 °F 13.9 °F 19.4 °F 86% 30.40 in 10.0 mi NNW 8.1 mph - N/A   Overcast
3:35 PM 21.2 °F 10.9 °F 17.6 °F 86% 30.41 in 10.0 mi NNW 9.2 mph - N/A   Overcast
3:56 PM 21.2 °F 12.6 °F 17.6 °F 86% 30.42 in 10.0 mi NNW 6.9 mph - N/A   Overcast
4:15 PM 21.2 °F 10.1 °F 17.6 °F 86% 30.42 in 10.0 mi NW 10.4 mph - N/A   Overcast
4:35 PM 21.2 °F 10.9 °F 17.6 °F 86% 30.43 in 10.0 mi NW 9.2 mph - N/A Snow Light Snow
4:56 PM 21.2 °F 10.9 °F 17.6 °F 86% 30.43 in 10.0 mi NW 9.2 mph - N/A   Overcast
5:15 PM 21.2 °F 10.1 °F 17.6 °F 86% 30.43 in 10.0 mi NW 10.4 mph - N/A   Overcast
5:35 PM 21.2 °F 10.9 °F 17.6 °F 86% 30.43 in 10.0 mi NW 9.2 mph - N/A   Overcast
5:55 PM 21.2 °F 11.7 °F 15.8 °F 80% 30.43 in 10.0 mi NW 8.1 mph - N/A   Overcast
6:15 PM 19.4 °F 7.9 °F 15.8 °F 86% 30.43 in 10.0 mi NNW 10.4 mph - N/A   Overcast
6:36 PM 19.4 °F 7.9 °F 14.0 °F 80% 30.43 in 10.0 mi NNW 10.4 mph 16.1 mph N/A   Overcast
6:55 PM 19.4 °F 8.6 °F 14.0 °F 80% 30.43 in 10.0 mi NNW 9.2 mph - N/A   Overcast
7:15 PM 19.4 °F 9.5 °F 14.0 °F 80% 30.43 in 10.0 mi NNW 8.1 mph - N/A   Overcast
7:36 PM 19.4 °F 9.5 °F 14.0 °F 80% 30.44 in 10.0 mi NNW 8.1 mph - N/A   Overcast
7:56 PM 19.4 °F 7.9 °F 14.0 °F 80% 30.43 in 10.0 mi NNW 10.4 mph - N/A   Overcast
8:15 PM 19.4 °F 8.6 °F 14.0 °F 80% 30.44 in 10.0 mi NW 9.2 mph - N/A   Overcast
8:36 PM 19.4 °F 9.5 °F 14.0 °F 80% 30.44 in 10.0 mi NNW 8.1 mph - N/A   Overcast
8:55 PM 19.4 °F 9.5 °F 14.0 °F 80% 30.44 in 10.0 mi NNW 8.1 mph - N/A Snow Light Snow
9:15 PM 19.4 °F 7.9 °F 14.0 °F 80% 30.45 in 10.0 mi NW 10.4 mph - N/A   Overcast
9:36 PM 19.4 °F 8.6 °F 14.0 °F 80% 30.45 in 10.0 mi NNW 9.2 mph - N/A   Overcast
9:56 PM 19.4 °F 10.4 °F 14.0 °F 80% 30.45 in 7.0 mi NNW 6.9 mph - N/A Snow Light Snow
10:15 PM 19.4 °F 8.6 °F 14.0 °F 80% 30.44 in 10.0 mi NW 9.2 mph - N/A Snow Light Snow
10:36 PM 19.4 °F 8.6 °F 14.0 °F 80% 30.44 in 10.0 mi NNW 9.2 mph - N/A Snow Light Snow
10:55 PM 19.4 °F 10.4 °F 14.0 °F 80% 30.45 in 7.0 mi NW 6.9 mph - N/A   Overcast
11:15 PM 17.6 °F 6.4 °F 14.0 °F 86% 30.44 in 10.0 mi NW 9.2 mph - N/A Snow Light Snow
11:36 PM 17.6 °F 7.3 °F 14.0 °F 86% 30.44 in 10.0 mi NNW 8.1 mph - N/A   Overcast
11:56 PM 17.6 °F 7.3 °F 12.2 °F 79% 30.44 in 10.0 mi NNW 8.1 mph - N/A   Overcast